Location: Newark
(34.9500°N, 139.9667°E)
Time: 10:49:39
(UTC+00:00)

Transit 4A - Pass Details

Date: 07 December 2019
Orbit: 872 x 973 km, 66.8° (Epoch: 28 January)

Event Time Altitude Azimuth Distance (km) Brightness Sun altitude
Rises 09:15:51 0° 241° (WSW) 3,615 12.3 -21.5°
Reaches altitude 10° 09:18:55 10° 255° (WSW) 2,657 11.4 -22.1°
Maximum altitude 09:23:50 24° 308° (NW) 1,813 9.8 -23.1°
Drops below altitude 10° 09:28:41 10° 1° (N) 2,610 10.1 -24.0°
Enters shadow 09:29:32 - 6° (N) 2,854 10.3 -24.2°
